Tracy, MN

4:01 AM CDT on September 30, 2016 (GMT -0500)
Tracy

Weather History for KTKC - December, 2012

Change the Weather History Date:

Saturday, December 8, 2012

  Actual Average (KMML) Record (KMML)
Temperature  
Mean Temperature 27 °F -  
Max Temperature 31 °F 29 °F 55 °F (1984)
Min Temperature 23 °F 11 °F -17 °F (1976)
Degree Days  
Heating Degree Days 38    
Moisture  
Dew Point 25 °F    
Average Humidity 95    
Maximum Humidity 96    
Minimum Humidity 90    
Precipitation  
Precipitation 0.00 in - - ()
Sea Level Pressure  
Sea Level Pressure 29.95 in    
Wind  
Wind Speed 4 mph (SSE)    
Max Wind Speed 17 mph    
Max Gust Speed 22 mph    
Visibility 4 miles    
Events Fog , Snow    
Averages and records for this station are not official NWS values.
T = Trace of Precipitation, MM = Missing Value Source: NWS Daily Summary

Daily Weather History Graph

Daily Weather History Graph

Search for Another Location

Airport or City:

Trip Planner

Search our weather history database for the weather conditions in past years. The results will help you decide how hot, cold, wet, or windy it might be!

Date:

Astronomy

Dec. 08, 2012 Rise Set
Actual Time 7:45 AM CST 4:43 PM CST
Civil Twilight 7:12 AM CST 5:16 PM CST
Nautical Twilight 6:36 AM CST 5:52 PM CST
Astronomical Twilight 6:01 AM CST 6:28 PM CST
Moon 2:01 AM CST (12/8) 1:22 PM CST (12/8)
Length of Visible Light 10h 03m
Length of Day
8h 57m
Waning Crescent, 28% of the Moon is Illuminated
Dec 8
Waning Crescent
Dec 13
New
Dec 19
First Quarter
Dec 28
Full
Jan 4
Last Quarter

Hourly Weather History & Observations

Time (CST) Temp. Windchill Dew Point Humidity Pressure Visibility Wind Dir Wind Speed Gust Speed Precip Events Conditions
12:16 AM 23.0 °F - 21.9 °F 96% 30.01 in 0.8 mi Calm Calm - N/A Snow Light Snow
12:36 AM 23.9 °F - 23.0 °F 96% 30.01 in 1.0 mi Calm Calm - N/A   Overcast
12:55 AM 24.1 °F - 23.0 °F 96% 30.00 in 0.8 mi Calm Calm - N/A   Overcast
1:16 AM 24.6 °F - 23.5 °F 96% 30.01 in 0.8 mi Calm Calm - N/A   Overcast
1:36 AM 24.6 °F - 23.5 °F 96% 30.00 in 1.5 mi Calm Calm - N/A   Overcast
1:55 AM 24.8 °F - 23.7 °F 96% 30.00 in 1.2 mi Calm Calm - N/A   Overcast
2:15 AM 24.8 °F - 23.7 °F 96% 30.00 in 0.8 mi Calm Calm - N/A   Overcast
2:36 AM 24.8 °F - 23.9 °F 96% 30.01 in 0.8 mi Calm Calm - N/A   Overcast
2:56 AM 24.8 °F - 23.9 °F 96% 30.01 in 0.8 mi Calm Calm - N/A   Overcast
3:15 AM 24.8 °F - 23.9 °F 96% 30.01 in 1.2 mi Calm Calm - N/A   Overcast
3:36 AM 25.0 °F - 23.9 °F 96% 30.01 in 1.2 mi Calm Calm - N/A   Overcast
3:56 AM 25.2 °F - 23.9 °F 95% 30.01 in 1.5 mi Calm Calm - N/A   Overcast
4:16 AM 25.2 °F - 23.9 °F 95% 30.01 in 1.8 mi Calm Calm - N/A   Overcast
4:35 AM 25.2 °F - 23.9 °F 95% 30.00 in 1.8 mi Calm Calm - N/A   Overcast
5:15 AM 25.2 °F - 23.9 °F 95% 29.99 in 2.0 mi Calm Calm - N/A   Overcast
5:35 AM 25.2 °F - 23.9 °F 95% 29.99 in 1.5 mi Calm Calm - N/A   Overcast
5:56 AM 24.8 °F - 23.9 °F 96% 29.99 in 1.5 mi Calm Calm - N/A   Overcast
6:16 AM 24.8 °F - 23.9 °F 96% 29.99 in 1.5 mi Calm Calm - N/A   Overcast
6:35 AM 24.8 °F - 23.9 °F 96% 29.99 in 1.8 mi Calm Calm - N/A   Overcast
6:55 AM 24.8 °F - 23.9 °F 96% 29.98 in 1.8 mi Calm Calm - N/A   Overcast
7:16 AM 24.6 °F - 23.5 °F 96% 29.98 in 1.5 mi Calm Calm - N/A   Overcast
7:36 AM 24.6 °F - 23.5 °F 96% 29.98 in 1.8 mi Calm Calm - N/A   Overcast
7:55 AM 23.9 °F - 23.0 °F 96% 29.98 in 0.8 mi Calm Calm - N/A   Overcast
8:16 AM 24.3 °F - 23.0 °F 95% 29.99 in 0.5 mi Calm Calm - N/A Fog Light Freezing Fog
8:36 AM 24.4 °F - 23.4 °F 96% 30.00 in 1.0 mi Calm Calm - N/A   Overcast
8:55 AM 25.3 °F - 24.3 °F 96% 30.00 in 2.0 mi Calm Calm - N/A   Overcast
9:15 AM 25.5 °F 18.7 °F 24.4 °F 96% 30.00 in 5.0 mi SSE 5.8 mph - N/A   Overcast
9:36 AM 25.7 °F 18.0 °F 24.6 °F 96% 30.00 in 7.0 mi South 6.9 mph - N/A   Overcast
9:56 AM 25.7 °F 16.4 °F 24.6 °F 96% 30.01 in 7.0 mi SSE 9.2 mph - N/A   Overcast
10:16 AM 25.7 °F 18.0 °F 24.6 °F 96% 30.00 in 7.0 mi South 6.9 mph - N/A   Overcast
10:36 AM 25.3 °F 15.3 °F 24.3 °F 96% 30.00 in 7.0 mi SSE 10.4 mph - N/A   Overcast
10:56 AM 25.5 °F 16.9 °F 24.4 °F 96% 30.00 in 5.0 mi South 8.1 mph - N/A   Overcast
11:15 AM 25.2 °F 16.5 °F 23.9 °F 95% 30.00 in 3.0 mi South 8.1 mph - N/A   Overcast
11:35 AM 24.8 °F 16.9 °F 23.9 °F 96% 29.99 in 5.0 mi South 6.9 mph - N/A   Overcast
11:56 AM 25.5 °F 17.8 °F 24.4 °F 96% 29.97 in 4.0 mi SSE 6.9 mph - N/A   Overcast
12:15 PM 25.7 °F 18.0 °F 24.6 °F 96% 29.96 in 3.0 mi SE 6.9 mph - N/A   Overcast
12:35 PM 25.5 °F 16.2 °F 24.4 °F 96% 29.95 in 5.0 mi SE 9.2 mph - N/A   Overcast
12:56 PM 25.2 °F 15.1 °F 23.9 °F 95% 29.95 in 5.0 mi SSE 10.4 mph - N/A   Overcast
1:16 PM 25.5 °F 16.2 °F 24.3 °F 95% 29.94 in 4.0 mi SSE 9.2 mph - N/A   Overcast
1:35 PM 25.7 °F 16.4 °F 24.4 °F 95% 29.92 in 4.0 mi SE 9.2 mph - N/A   Overcast
1:55 PM 25.7 °F 16.4 °F 24.4 °F 95% 29.92 in 5.0 mi SE 9.2 mph - N/A   Overcast
2:16 PM 25.7 °F 17.1 °F 24.4 °F 95% 29.92 in 7.0 mi SE 8.1 mph - N/A   Overcast
2:35 PM 25.7 °F 15.7 °F 24.4 °F 95% 29.92 in 5.0 mi SSE 10.4 mph - N/A   Overcast
2:55 PM 25.5 °F 14.9 °F 23.9 °F 94% 29.91 in 10.0 mi SSE 11.5 mph - N/A   Overcast
3:16 PM 25.7 °F 14.6 °F 24.3 °F 94% 29.90 in 10.0 mi SE 12.7 mph - N/A   Overcast
3:36 PM 25.7 °F 15.1 °F 24.3 °F 94% 29.91 in 10.0 mi SSE 11.5 mph - N/A   Overcast
3:56 PM 26.1 °F 16.8 °F 24.3 °F 93% 29.92 in 10.0 mi SSE 9.2 mph - N/A   Overcast
4:16 PM 26.4 °F 18.9 °F 24.6 °F 93% 29.91 in 10.0 mi SE 6.9 mph - N/A   Overcast
4:35 PM 26.6 °F 18.2 °F 24.8 °F 93% 29.91 in 10.0 mi SE 8.1 mph - N/A   Overcast
4:56 PM 26.6 °F 19.1 °F 24.8 °F 93% 29.91 in 10.0 mi SE 6.9 mph - N/A   Overcast
5:15 PM 27.0 °F 18.7 °F 24.8 °F 92% 29.90 in 10.0 mi ESE 8.1 mph - N/A   Overcast
5:36 PM 27.1 °F 18.2 °F 25.2 °F 92% 29.90 in 10.0 mi SE 9.2 mph - N/A   Overcast
5:55 PM 27.3 °F 19.1 °F 25.3 °F 92% 29.91 in 10.0 mi SE 8.1 mph - N/A   Overcast
6:16 PM 27.5 °F 18.6 °F 25.7 °F 93% 29.90 in 7.0 mi SE 9.2 mph - N/A   Overcast
6:35 PM 27.9 °F 18.4 °F 25.7 °F 92% 29.89 in 5.0 mi SE 10.4 mph - N/A Snow Light Snow
6:55 PM 28.0 °F 19.3 °F 26.1 °F 92% 29.89 in 2.0 mi SE 9.2 mph - N/A Snow Light Snow
7:15 PM 28.0 °F 19.3 °F 26.4 °F 94% 29.88 in 1.5 mi ESE 9.2 mph - N/A Snow Light Snow
7:36 PM 28.2 °F 19.5 °F 26.6 °F 94% 29.88 in 4.0 mi SE 9.2 mph - N/A Snow Light Snow
7:55 PM 28.4 °F 20.4 °F 26.4 °F 92% 29.87 in 3.0 mi ESE 8.1 mph - N/A Snow Light Snow
8:15 PM 28.9 °F 19.8 °F 26.4 °F 90% 29.86 in 7.0 mi SE 10.4 mph - N/A Snow Light Snow
8:36 PM 29.1 °F 18.4 °F 27.3 °F 93% 29.86 in 1.0 mi SE 13.8 mph 18.4 mph N/A Snow Snow
9:15 PM 29.3 °F 19.1 °F 27.9 °F 94% 29.85 in 1.0 mi SE 12.7 mph - N/A Snow Snow
9:36 PM 29.8 °F 19.3 °F 28.4 °F 94% 29.85 in 1.5 mi SSE 13.8 mph - N/A Snow Light Snow
9:55 PM 30.2 °F 19.8 °F 28.6 °F 94% 29.85 in 5.0 mi SE 13.8 mph - N/A Snow Light Snow
10:16 PM 30.9 °F 21.2 °F 29.1 °F 93% 29.87 in 5.0 mi South 12.7 mph 18.4 mph N/A Snow Light Snow
10:36 PM 31.5 °F 21.8 °F 29.7 °F 93% 29.87 in 3.0 mi South 12.7 mph - N/A Snow Light Snow
10:56 PM 31.5 °F 22.3 °F 29.8 °F 94% 29.86 in 2.5 mi SSE 11.5 mph 17.3 mph N/A Snow Light Snow
11:15 PM 31.6 °F 20.4 °F 29.8 °F 93% 29.85 in 1.5 mi SSE 17.3 mph 20.7 mph N/A Snow Light Snow
11:35 PM 31.6 °F 21.6 °F 29.8 °F 93% 29.84 in 2.0 mi SSE 13.8 mph 20.7 mph N/A Snow Light Snow
11:56 PM 31.8 °F 21.0 °F 29.7 °F 92% 29.82 in 5.0 mi SSE 16.1 mph 21.9 mph N/A Snow Light Snow